Location: Unspecified
(0.0000°N, 0.0000°E)
Time: 08:28:50
(UTC+00:00)

N. Korean satellite - Pass Details

Date: 30 November 2020
Orbit: 452 x 504 km, 97.2° (Epoch: 27 November)

Event Time Altitude Azimuth Distance (km) Brightness Sun altitude
Rises 04:45:04 0° 23° (NNE) 2,571 10.3 -14.8°
Reaches altitude 10° 04:47:13 10° 31° (NNE) 1,697 9.4 -14.3°
Maximum altitude 04:50:39 39° 101° (E) 769 8.2 -13.5°
Drops below altitude 10° 04:54:07 10° 171° (S) 1,713 9.8 -12.7°
Sets 04:56:18 0° 178° (S) 2,599 10.6 -12.2°
